Temperature
4 3 3 4 4 5 5 5 5 6 7 7 6 6 6 7 7 7 7 8 8 9 9 10 10 10 10 11 11 11 11 11 11 11 11 11 11 11 11 11 11 11 11 11
2 3 4 4 5 5 5 5 5 5 6 7 6 6 6 6 6 7 7 7 8 8 9 9 10 10 10 10 10 10 10 11 11 11 11 11 11 11 11 11 11 11 11 11
2 3 4 4 4 5 5 5 5 5 5 6 6 6 6 6 6 6 7 7 7 8 8 8 9 9 10 10 10 10 10 10 10 10 10 10 10 10 10 10 10 10 10 10
2 3 4 4 4 4 4 5 5 5 4 4 5 5 5 5 5 5 6 6 7 7 8 8 8 9 9 9 9 10 10 10 10 10 10 10 10 10 10 10 10 10 10 10
2 3 3 3 4 4 4 5 5 4 4 3 4 4 4 4 5 5 5 5 6 6 7 7 8 8 9 9 9 9 9 9 9 9 9 9 9 10 10 10 10 10 9 9
2 3 3 3 4 4 4 4 4 3 3 3 3 4 4 4 4 5 4 5 5 6 6 7 7 8 8 8 8 9 9 9 9 9 9 9 9 9 9 9 9 9 9 9
1 2 3 3 3 4 3 3 3 3 3 3 3 4 4 4 4 4 4 4 4 5 6 6 7 7 7 8 8 8 8 8 8 8 8 8 8 9 9 9 9 9 9 9
1 1 2 2 3 3 3 3 3 3 3 3 3 3 3 3 3 3 3 3 4 4 5 5 6 6 7 7 7 7 7 8 8 8 8 8 8 8 8 8 8 9 9 9
0 1 2 2 3 3 2 2 2 2 1 2 2 2 3 3 2 2 2 2 3 3 4 5 5 5 6 6 6 7 7 7 7 7 7 7 7 8 8 8 8 8 8 8
-0 0 1 1 3 2 2 2 1 1 2 2 2 2 3 2 2 1 1 1 2 3 3 4 4 5 5 6 6 6 6 6 6 6 7 7 7 7 7 7 7 7 7 7
-0 -1 -0 0 1 1 1 1 1 0 1 2 2 3 2 2 1 1 1 1 2 2 3 3 4 4 4 5 5 5 5 6 6 6 6 6 6 7 7 7 7 7 7 7
-1 -1 -1 -1 -0 0 1 1 0 1 0 0 0 2 2 1 1 1 0 1 1 1 2 3 3 3 4 4 4 5 5 5 5 5 6 6 6 6 6 6 6 6 6 6
-1 -2 -1 -0 0 -0 -1 -1 -1 -1 -1 -1 0 2 1 0 0 0 -0 -0 0 1 1 2 2 3 3 3 3 4 4 4 5 5 5 5 5 5 6 6 6 6 6 6
-1 -2 -1 -0 -0 -1 -2 -1 -1 -1 -1 -1 -0 1 1 -0 -1 -1 -1 -0 0 0 1 1 2 2 2 2 3 3 4 4 4 4 4 5 5 5 5 5 5 5 5 5
-2 -3 -3 -2 -1 -1 -1 -1 -1 -1 -1 -0 0 0 0 -1 -1 -1 -1 -1 -1 -0 -0 0 1 1 1 2 2 2 3 3 3 4 4 4 4 4 4 5 5 5 4 4
-3 -3 -3 -2 -1 -1 -1 -1 -1 -1 -1 -1 -0 -0 -1 -2 -1 -1 -2 -1 -1 -1 -1 -0 0 0 1 1 2 2 3 3 3 3 3 3 4 4 4 4 4 4 4 4
-4 -4 -3 -2 -2 -1 -2 -2 -2 -2 -2 -2 -1 -1 -2 -2 -2 -2 -2 -2 -2 -2 -1 -1 -1 -0 0 1 1 2 2 2 3 3 3 3 3 3 3 3 3 3 3 3
-4 -4 -4 -4 -3 -2 -1 -2 -3 -2 -2 -3 -2 -3 -2 -2 -2 -2 -1 -2 -2 -2 -2 -1 -1 -1 -0 0 1 1 2 2 2 2 2 2 2 2 2 3 3 3 3 3
-4 -4 -5 -4 -4 -3 -2 -2 -3 -3 -3 -3 -3 -3 -3 -2 -3 -2 -1 -2 -2 -2 -2 -1 -1 -1 -1 -0 0 0 1 1 1 1 2 2 2 2 2 2 2 2 2 2
-5 -5 -5 -5 -3 -2 -2 -3 -3 -3 -2 -3 -3 -3 -3 -3 -3 -3 -2 -2 -2 -2 -2 -2 -1 -1 -1 -1 -0 0 0 1 1 1 1 1 1 1 1 2 2 2 2 2
-5 -6 -5 -5 -4 -3 -3 -3 -3 -2 -2 -3 -3 -3 -3 -4 -3 -2 -2 -2 -2 -2 -2 -2 -1 -1 -1 -1 -1 -0 -0 0 0 0 0 0 1 1 1 1 1 1 1 1
-6 -6 -6 -6 -5 -3 -4 -4 -4 -3 -3 -3 -3 -3 -3 -3 -3 -3 -3 -3 -3 -2 -2 -2 -2 -2 -2 -2 -1 -1 -1 -1 -1 -0 -0 -0 -0 -0 -0 -0 0 0 0 1
-6 -6 -6 -5 -4 -4 -4 -3 -3 -3 -3 -3 -3 -3 -3 -3 -3 -3 -3 -3 -3 -3 -3 -2 -2 -2 -2 -2 -2 -1 -1 -1 -1 -1 -1 -1 -1 -1 -1 -1 -0 -0 -0 -0
-7 -7 -7 -7 -5 -5 -4 -3 -3 -3 -3 -3 -3 -3 -3 -3 -3 -4 -3 -3 -3 -3 -3 -3 -3 -3 -2 -2 -2 -2 -2 -2 -2 -2 -2 -1 -1 -2 -1 -1 -1 -1 -1 -1
-6 -7 -7 -7 -6 -5 -4 -3 -3 -3 -3 -3 -3 -3 -3 -4 -4 -4 -4 -4 -4 -4 -3 -3 -3 -3 -3 -3 -3 -3 -3 -2 -2 -2 -2 -2 -2 -2 -2 -2 -2 -2 -1 -1
-7 -7 -7 -5 -4 -5 -4 -2 -3 -3 -3 -3 -4 -4 -4 -4 -4 -4 -4 -4 -4 -4 -4 -4 -4 -4 -3 -3 -3 -3 -3 -3 -3 -3 -2 -2 -2 -2 -2 -2 -2 -2 -2 -2
Wind_Speed
2 1 2 4 5 4 3 2 3 4 3 1 3 4 4 2 1 1 1 1 1 2 0 1 1 1 3 3 4 4 4 4 4 3 3 3 2 2 2 2 4 6 7 8
2 2 4 2 1 1 2 2 2 3 2 1 2 4 4 2 3 3 3 2 2 1 2 2 2 1 2 3 4 4 5 5 4 3 2 2 3 2 2 2 3 4 6 7
2 3 3 1 1 1 3 4 2 2 3 2 1 4 4 2 2 2 2 1 1 1 1 1 2 1 1 2 3 4 4 4 3 3 3 3 3 2 2 1 1 2 4 6
1 3 1 1 2 1 4 2 2 2 1 1 0 3 5 3 2 3 3 2 2 1 1 1 1 1 0 1 1 2 3 3 3 4 4 5 4 3 3 3 3 2 4 5
1 2 1 1 3 2 3 1 0 1 1 1 1 1 6 2 4 5 4 3 2 1 1 1 1 1 1 0 0 1 2 3 3 4 5 5 3 2 2 3 3 3 2 3
2 2 1 2 2 2 1 2 3 2 2 2 3 3 5 3 5 5 3 2 2 2 1 1 2 1 2 2 1 1 2 2 2 3 3 4 4 4 4 4 4 3 2 2
4 3 2 1 2 2 3 4 2 1 0 4 2 3 6 4 3 3 3 2 2 1 1 2 3 3 2 2 2 1 2 1 1 2 2 3 3 4 5 5 5 4 3 3
3 4 3 3 1 1 1 3 3 2 3 2 0 5 5 2 2 2 1 1 1 2 2 2 2 1 1 1 1 1 1 1 1 1 1 1 2 2 2 4 5 5 5 4
1 4 4 3 1 2 1 1 2 3 1 0 4 5 6 3 4 4 3 3 3 3 3 2 2 2 1 1 1 1 1 1 0 1 1 1 2 2 3 3 3 3 3 3
1 2 4 5 3 3 2 3 3 3 2 2 4 4 3 5 5 4 4 4 4 4 4 3 3 3 2 2 2 1 1 1 1 1 1 1 1 2 2 3 3 4 3 4
1 0 4 4 2 1 2 2 2 2 2 3 2 5 2 4 4 4 4 3 3 4 4 3 3 3 3 2 2 1 1 1 0 0 0 0 1 1 1 2 3 3 3 5
1 2 2 4 3 1 0 1 2 2 2 2 2 5 3 3 3 2 4 5 5 4 4 4 3 3 3 3 3 3 2 1 1 0 0 0 0 0 0 1 2 3 4 4
1 3 3 5 4 3 2 1 1 2 2 3 3 5 3 5 5 4 4 5 5 4 5 5 5 4 4 4 4 4 3 2 2 1 0 0 0 0 1 1 1 3 4 4
2 2 3 5 5 2 3 2 0 2 2 3 5 6 6 7 6 6 6 5 4 4 5 5 5 5 5 5 4 4 4 3 2 2 1 0 1 1 1 1 2 2 4 5
3 1 2 4 4 3 3 4 3 4 5 5 5 5 8 7 5 5 5 5 5 6 6 6 6 6 6 5 5 5 5 4 3 1 1 1 1 1 1 1 2 2 3 5
3 1 1 3 2 2 3 5 4 5 4 5 5 7 6 4 3 4 4 5 5 6 6 6 6 6 6 5 5 5 5 5 3 1 1 0 1 1 1 1 2 3 3 4
1 1 1 3 4 3 4 4 4 3 3 4 6 5 4 5 5 4 5 4 4 5 6 6 6 6 6 6 5 5 5 4 3 2 1 0 1 1 1 2 3 3 3 4
2 2 1 1 4 3 5 1 2 3 4 3 4 5 4 5 6 5 3 2 4 5 6 6 5 5 6 5 5 5 4 4 3 2 1 0 1 1 1 2 2 3 3 3
2 3 2 1 1 6 6 2 1 2 5 3 4 5 5 5 4 3 2 2 3 4 4 5 5 5 5 5 5 4 4 3 3 2 2 0 1 1 1 2 2 3 3 3
3 3 3 2 2 5 5 1 1 1 4 3 2 4 4 3 3 4 4 5 5 5 4 4 5 4 4 5 4 3 3 3 3 3 2 0 1 1 1 1 2 2 3 3
1 1 2 3 4 7 4 2 2 2 5 3 2 3 3 2 4 5 5 5 4 5 5 4 4 4 4 4 3 3 3 3 4 3 2 1 1 1 1 1 2 3 3 4
4 4 4 4 4 7 2 3 4 6 3 2 3 3 3 5 5 5 4 4 4 5 5 4 4 4 4 4 3 3 3 4 3 2 1 1 1 1 2 2 2 3 4 4
6 6 5 7 7 4 3 4 4 2 3 3 3 4 4 4 5 5 4 4 4 4 4 3 3 4 5 4 3 3 4 3 2 1 1 1 1 1 2 2 3 3 3 3
4 2 3 5 8 6 6 5 4 4 4 5 5 4 3 4 5 4 4 4 4 4 4 3 3 4 5 5 4 3 4 2 1 1 1 1 2 2 2 2 2 2 2 3
5 5 4 6 7 6 5 6 6 6 5 5 4 3 4 4 4 4 4 4 3 3 3 3 3 3 4 5 5 4 3 1 1 1 1 1 1 2 2 2 2 2 1 2
6 7 7 8 6 5 6 4 4 4 5 5 4 4 3 3 4 4 3 3 3 3 3 3 3 3 4 4 4 4 3 1 1 1 1 1 1 2 2 2 3 4 3 4
Wind_Direction
36 76 230 233 220 222 205 201 240 264 293 255 215 250 271 272 296 274 273 227 212 224 337 48 40 148 141 147 159 165 152 151 144 141 145 149 152 143 136 125 140 146 145 148
54 266 270 269 249 195 208 213 258 307 345 246 240 266 269 254 239 234 228 225 238 311 24 35 21 100 150 164 172 179 174 170 169 165 162 163 148 145 143 123 128 146 149 152
188 272 284 263 228 223 232 215 225 273 357 6 326 295 261 257 232 260 256 232 227 210 241 348 8 24 134 172 185 188 184 176 171 146 124 106 93 91 118 136 170 161 158 154
306 300 289 229 235 221 252 243 237 264 22 309 121 269 278 251 252 259 264 266 264 267 274 298 331 352 212 231 194 166 170 168 169 155 157 159 172 179 191 178 179 169 158 156
297 307 293 234 257 233 238 260 219 233 175 331 357 197 286 308 259 251 252 256 268 272 253 256 267 239 287 341 130 146 152 155 163 171 172 172 176 170 145 147 159 166 162 160
289 284 243 256 267 234 230 57 52 45 84 247 230 190 277 248 238 252 252 264 291 319 350 351 336 21 18 30 58 105 132 145 155 167 174 175 174 162 155 165 172 174 179 175
341 323 343 1 33 19 86 95 64 31 286 246 211 199 252 257 252 238 248 271 296 330 15 11 4 13 5 19 26 68 124 128 141 167 183 184 182 176 181 181 180 178 182 192
5 315 331 1 84 200 195 130 140 190 221 289 259 232 258 303 334 339 330 317 353 3 3 356 335 343 347 347 2 59 133 147 135 168 210 202 181 178 198 193 184 189 195 193
15 296 327 329 325 127 116 135 148 130 78 277 264 285 303 359 357 359 1 5 349 351 354 349 348 354 359 343 299 231 187 153 180 214 193 196 195 187 197 197 187 188 185 169
153 289 314 325 16 21 117 140 96 109 131 251 280 272 280 309 315 324 337 341 343 351 350 352 351 349 348 329 308 283 208 181 201 196 200 235 236 219 199 186 186 186 176 160
67 92 324 1 31 325 31 65 97 122 152 170 256 276 263 286 297 297 309 325 333 339 340 341 340 340 354 6 14 2 2 21 26 272 218 244 257 256 201 189 189 182 169 160
37 95 312 288 279 312 94 157 137 151 233 191 196 271 340 336 334 335 337 343 345 346 348 348 350 358 10 13 11 4 356 355 320 275 182 187 221 187 148 193 187 170 169 162
84 90 13 349 353 9 24 3 81 116 129 181 199 265 343 10 10 3 354 348 349 355 360 1 5 7 3 0 357 354 348 341 338 351 44 36 186 180 217 218 182 166 161 155
78 112 173 212 245 252 286 292 268 140 184 222 233 263 306 330 336 338 343 346 350 358 3 1 0 358 353 351 348 346 344 343 352 0 358 306 254 242 220 197 168 159 156 154
68 118 239 256 261 256 261 268 246 208 214 215 248 261 286 302 304 314 329 344 355 355 357 358 354 349 348 348 346 344 345 347 351 356 328 286 313 40 84 127 141 139 145 151
48 89 334 304 294 286 287 276 250 238 242 244 266 279 286 304 329 331 332 342 345 344 345 346 347 346 342 338 335 337 339 338 343 335 297 326 71 73 81 116 129 129 134 137
56 95 29 293 320 356 286 253 218 224 226 212 239 263 311 324 322 314 310 317 322 330 336 337 335 331 327 325 327 326 325 331 338 325 317 45 88 89 90 118 123 134 137 134
146 125 134 319 12 262 255 275 216 235 257 247 261 292 299 292 299 294 281 293 316 327 327 326 325 327 326 327 333 331 334 340 339 336 327 63 104 107 96 109 130 137 137 144
163 147 125 112 282 282 292 271 194 225 280 266 259 286 304 319 329 320 322 336 313 310 308 310 313 316 322 326 330 338 342 344 343 337 321 293 146 140 122 127 141 137 139 140
67 97 129 138 201 251 267 299 305 78 293 287 251 279 302 347 339 300 331 333 324 327 328 328 330 332 331 328 335 346 342 343 333 325 318 317 143 150 155 154 148 137 137 136
49 66 168 186 228 266 267 292 90 157 265 290 244 262 268 244 245 286 315 321 322 325 329 336 338 336 327 327 340 347 339 327 319 331 343 22 83 127 138 123 135 134 131 122
185 180 195 172 210 256 249 129 184 231 274 273 257 253 257 268 285 299 308 314 323 329 332 339 340 334 330 331 341 342 328 322 332 348 13 45 55 101 119 113 110 122 128 124
206 198 196 201 221 254 202 214 243 240 252 262 259 269 270 283 292 302 309 312 317 320 324 334 334 333 336 334 335 327 320 328 343 9 45 61 60 69 107 119 122 118 124 131
252 194 203 257 263 260 258 260 271 259 255 267 271 269 264 271 284 294 300 309 318 321 324 332 336 337 334 335 337 326 319 323 6 65 77 92 96 85 76 92 117 126 133 136
225 185 213 256 274 296 272 250 258 270 278 282 286 269 258 262 276 278 287 294 302 311 319 326 324 322 325 332 337 335 333 354 81 88 89 88 107 116 99 78 84 116 132 144
199 190 197 236 233 222 257 264 255 259 270 274 278 282 270 246 257 267 275 283 290 302 316 328 328 327 329 336 338 338 344 48 117 105 104 105 112 116 110 98 71 64 87 86
Height
1478 1481 1480 1480 1480 1479 1480 1482 1482 1480 1477 1478 1479 1479 1479 1478 1479 1478 1478 1479 1480 1481 1483 1485 1486 1488 1490 1492 1494 1495 1497 1499 1501 1502 1504 1506 1508 1510 1511 1513 1516 1517 1519 1521
1481 1482 1481 1480 1479 1479 1480 1481 1482 1480 1477 1478 1479 1479 1478 1477 1478 1479 1478 1478 1479 1480 1481 1482 1484 1485 1487 1489 1491 1493 1495 1497 1498 1500 1502 1504 1505 1507 1509 1511 1512 1515 1517 1518
1483 1483 1480 1480 1479 1479 1479 1481 1482 1482 1480 1479 1480 1480 1478 1476 1477 1477 1477 1477 1478 1478 1479 1480 1481 1483 1484 1486 1488 1490 1492 1494 1496 1498 1499 1501 1503 1505 1507 1508 1510 1512 1514 1516
1483 1481 1481 1480 1480 1480 1480 1479 1480 1481 1484 1486 1484 1486 1478 1476 1476 1475 1475 1475 1476 1477 1478 1479 1479 1480 1481 1483 1486 1487 1489 1491 1493 1495 1497 1498 1500 1501 1503 1505 1508 1509 1512 1514
1485 1482 1482 1480 1480 1480 1481 1479 1480 1482 1485 1489 1487 1490 1481 1476 1475 1474 1474 1474 1474 1475 1476 1476 1477 1478 1480 1481 1483 1485 1486 1488 1490 1492 1494 1495 1497 1499 1501 1503 1506 1508 1509 1511
1485 1483 1483 1481 1480 1480 1480 1481 1482 1485 1488 1491 1488 1488 1483 1478 1473 1471 1472 1472 1472 1473 1473 1474 1475 1477 1478 1479 1481 1482 1484 1486 1487 1489 1491 1492 1494 1496 1498 1500 1503 1505 1507 1508
1488 1484 1482 1482 1481 1481 1482 1487 1491 1491 1493 1491 1486 1486 1481 1473 1472 1471 1471 1471 1471 1471 1471 1472 1473 1473 1475 1476 1478 1479 1481 1482 1484 1486 1488 1490 1492 1493 1496 1498 1500 1502 1504 1505
1494 1491 1485 1484 1484 1485 1485 1487 1494 1494 1493 1492 1488 1485 1478 1474 1472 1471 1470 1470 1470 1469 1469 1470 1471 1472 1473 1474 1475 1477 1478 1480 1481 1483 1485 1487 1489 1491 1493 1495 1497 1499 1501 1502
1498 1494 1487 1485 1484 1485 1487 1490 1491 1497 1500 1499 1492 1486 1477 1473 1472 1471 1470 1469 1469 1468 1468 1469 1469 1470 1471 1472 1473 1475 1476 1477 1479 1480 1482 1484 1486 1488 1490 1492 1493 1496 1498 1499
1499 1499 1492 1488 1485 1486 1488 1490 1494 1498 1499 1496 1491 1488 1482 1477 1474 1472 1471 1470 1468 1468 1468 1468 1468 1468 1469 1470 1471 1473 1474 1475 1477 1478 1480 1481 1483 1485 1487 1489 1490 1492 1495 1497
1499 1502 1497 1493 1492 1492 1491 1492 1494 1499 1498 1499 1497 1486 1478 1476 1474 1474 1472 1470 1469 1468 1467 1467 1467 1467 1467 1468 1469 1471 1472 1473 1474 1476 1477 1479 1480 1482 1483 1485 1487 1489 1491 1494
1501 1504 1505 1500 1495 1494 1493 1494 1496 1498 1501 1502 1502 1490 1478 1476 1474 1473 1472 1471 1469 1468 1467 1467 1467 1466 1466 1466 1467 1468 1470 1471 1472 1473 1474 1476 1477 1479 1480 1482 1484 1486 1488 1490
1501 1505 1506 1500 1500 1498 1498 1497 1498 1500 1502 1504 1500 1488 1478 1476 1475 1474 1473 1471 1469 1468 1467 1467 1466 1466 1465 1465 1466 1466 1467 1468 1470 1471 1472 1473 1474 1476 1477 1479 1481 1483 1485 1487
1499 1506 1507 1505 1500 1501 1501 1499 1498 1498 1501 1501 1494 1485 1480 1478 1477 1475 1473 1472 1470 1468 1468 1467 1466 1466 1465 1465 1465 1465 1465 1466 1467 1468 1469 1470 1472 1473 1474 1476 1478 1480 1482 1484
1501 1507 1506 1503 1500 1499 1498 1497 1497 1497 1495 1495 1487 1485 1481 1479 1478 1476 1474 1472 1470 1469 1468 1467 1466 1465 1465 1464 1464 1463 1463 1464 1465 1466 1466 1467 1469 1470 1471 1473 1475 1477 1479 1481
1503 1507 1506 1502 1498 1498 1496 1493 1494 1494 1493 1491 1487 1484 1480 1479 1477 1476 1474 1473 1471 1470 1469 1467 1466 1465 1464 1463 1463 1462 1462 1462 1463 1463 1464 1465 1466 1467 1469 1470 1472 1474 1476 1478
1506 1508 1507 1505 1501 1497 1497 1492 1491 1491 1490 1489 1486 1482 1480 1479 1477 1476 1475 1473 1472 1471 1469 1467 1466 1465 1464 1463 1462 1461 1461 1461 1461 1461 1462 1463 1464 1465 1466 1468 1469 1471 1474 1476
1506 1508 1511 1509 1506 1504 1493 1490 1490 1489 1487 1486 1483 1482 1480 1479 1476 1475 1474 1473 1472 1471 1469 1467 1466 1464 1463 1462 1461 1460 1460 1459 1459 1459 1460 1461 1462 1463 1464 1465 1467 1469 1471 1474
1504 1507 1512 1514 1513 1502 1492 1489 1489 1490 1486 1483 1482 1480 1479 1477 1475 1473 1473 1472 1471 1470 1469 1467 1466 1464 1463 1462 1460 1459 1458 1458 1458 1458 1458 1459 1460 1461 1462 1463 1465 1467 1469 1472
1506 1507 1512 1515 1511 1502 1490 1488 1486 1489 1486 1481 1480 1479 1478 1477 1478 1475 1472 1471 1470 1468 1467 1466 1464 1463 1462 1460 1459 1457 1456 1456 1456 1456 1457 1457 1458 1459 1460 1462 1463 1465 1467 1469
1509 1511 1512 1513 1511 1498 1489 1487 1487 1492 1485 1481 1479 1478 1478 1477 1477 1474 1471 1470 1469 1467 1466 1465 1463 1461 1460 1459 1457 1456 1455 1455 1455 1455 1455 1456 1457 1457 1459 1460 1462 1463 1465 1467
1508 1510 1511 1512 1509 1497 1485 1485 1487 1484 1480 1479 1477 1477 1476 1475 1473 1471 1470 1468 1467 1465 1464 1463 1461 1460 1459 1458 1456 1454 1454 1454 1453 1453 1454 1454 1455 1456 1457 1458 1460 1461 1463 1465
1503 1501 1500 1499 1493 1484 1482 1480 1480 1479 1478 1477 1476 1475 1474 1472 1471 1469 1468 1466 1465 1464 1463 1461 1460 1458 1457 1456 1455 1453 1452 1452 1451 1451 1452 1453 1454 1454 1455 1456 1458 1459 1461 1463
1496 1494 1495 1493 1484 1480 1479 1478 1477 1476 1475 1474 1473 1472 1471 1470 1469 1468 1466 1465 1464 1462 1461 1460 1458 1457 1455 1454 1453 1452 1451 1450 1450 1450 1451 1451 1452 1453 1454 1455 1456 1458 1459 1460
1489 1491 1491 1488 1480 1477 1475 1474 1474 1473 1472 1471 1471 1470 1469 1468 1466 1466 1464 1463 1462 1461 1460 1458 1457 1456 1454 1453 1452 1451 1450 1449 1449 1449 1450 1450 1451 1452 1453 1454 1455 1457 1458 1460
1481 1483 1484 1479 1474 1474 1472 1471 1471 1470 1469 1469 1468 1467 1466 1466 1464 1464 1463 1462 1461 1460 1458 1457 1456 1455 1453 1452 1451 1450 1449 1449 1449 1448 1449 1449 1450 1451 1452 1453 1454 1456 1458 1459